TITAN 3C TRANSTAGE DEB, 30000

Orbit data source: Space-Track

TITAN 3C TRANSTAGE DEB, 30000 is space debris in GEO originally from a launch on Thu, 26 Sep 1968 UTC launched from the Air Force Eastern Test Range (AFETR). Debris objects in space refer to the collection of defunct objects orbiting the Earth. Examples of debris include non-operational satellites, rocket bodies, and fragments generated from explosions, collisions, or faulty payload assembly.

Not visible in the next 10 days
Identifier
30000, 1968-081J
Orbit
GEO
Country
Flag of USUS
Related business
Manufacturer
Unknown
Mission
Spacecraft
Bus & Motor
Unknown
Mass
Unknown
Launch date (UTC)
1968-09-26 (57 years ago)
Launch vehicle
Unknown
Launch site
Air Force Eastern Test Range (AFETR)
Object type
Payload
Rocket body
Debris
Shape & HBR
Unknown shape, 1.1 m
Radar Cross Section
Medium (>0.1 m² and <1 m²)

Expand to show TLE details & history
Last TLE update: 22 hours ago

TLE from 22 hours ago
0 TITAN 3C TRANSTAGE DEB
1 30000U 68081J   25347.21021503  .00000094  00000-0  00000-0 0  9994
2 30000   1.5860  35.2420 0117317 315.1615 200.6588  1.00910385 77362
Epoch: 2025-12-13T05:02Z
TLE epoch observation values (Epoch: 2025-12-13T05:02:42.578Z)
Latitude
0.6515°
Longitude
32.78203°
Altitude
36,067.755 km
Speed
3.048 km/s
True Right ascension
12h 42m 24s
True Declination
0° 39' 03"
Sunlit
Object was in daylight at epoch
Visualization orbit readout
Latitude
Unknown
Longitude
Unknown
Altitude
Unknown
Speed
Unknown
Apparent Right ascension
Unknown
Apparent Declination
Unknown
Sunlit
N/A
Visualization observer readout
Local Sidereal Time
01:42:48
Azimuth
Unknown
Elevation
Unknown
Doppler factor
Unknown
Orbital elements
Apogee altitude
36,102.178 km
Perigee altitude
35,117.003 km
Semi-major axis
41,987.728 km
Eccentricity
0.01173
Inclination
1.586°
RAAN
35.242°
Arg. of periapsis
315.1615°
True anomaly
200.19094°
Mean anomaly
200.6588°
Eccentric anomaly
200.42423°
Mean motion
0.25227 °/min
Orbital period
1,427.06 mins
BSTAR
0
Loading maneuver chart data...
Computing Atmospheric mass density...

Documentation

Showing up to 5 results
|